Content
SEND FEEDBACK

Daily
Averages
Monthly
Summary
Norway

ROSSVOLL, NORWAY


Home > Europe > Norway
Elevation: 230 feet     Latitude: 66 22N     Longitude: 014 18E

WEATHER
 
SELECT A DAY
Number of Records: 96,938;   Date Range: 7/1/96 - 9/18/14
 
SHARE

PRINT THIS DATA

[ ← Previous Day ]
WEATHER ALMANAC - FEBRUARY 13, 2013
[ Next Day → ]
[ °C ]   °F
Weather ElementAverageHighLow
Temperature25.3 °F28.4 °F (11:50 am)10.4 °F (6:50 am)
Dewpoint14.9 °F21.2 °F (9:20 pm)5 °F (6:50 am)
Humidity65.6 %86 % (9:20 pm)55 % (11:50 am)
Barometer30.26 in30.33 in (6:50 am)30.21 in (5:20 pm)
Wind Speed7.4 mph16.1 mph (5:20 pm)
Wind Gust27.6 mph (4:50 pm)
Weather ElementAverage
Visibility6 mi
Wind DirectionSSE (151.4 °)

Weather ElementTotal
Precipitation---
Heating Degree Days45.6 (Base 65)
Averaged from 28 records on February 13, 2013
WEATHER CONDITIONS BREAKOUT
WIND DIRECTION BREAKOUT
WEATHER BY HOUR - FEBRUARY 13, 2013
[ °C ]   °F
Local TimeTemperatureDewpointHumidityBarometerVisibilityWind DirectionWind SpeedGust SpeedPrecipitationEventsConditions
6:50 AM10.4 °F5.0 °F79 %30.33 in6.2 miSW (230°)4.6 mphMostly Cloudy
7:20 AM21.2 °F14.0 °F74 %30.33 in6.2 miSW (230°)2.3 mphScattered Clouds
7:50 AM23.0 °F14.0 °F68 %30.33 in6.2 miVariable2.3 mphScattered Clouds
8:50 AM24.8 °F14.0 °F64 %30.33 in6.2 miESE (110°)6.9 mphMostly Cloudy
9:50 AM24.8 °F14.0 °F64 %30.33 in6.2 miESE (110°)6.9 mphMostly Cloudy
10:50 AM26.6 °F14.0 °F59 %30.33 in6.2 miEast (90°)6.9 mphScattered Clouds
11:20 AM26.6 °F14.0 °F59 %30.30 in6.2 miESE (120°)4.6 mphScattered Clouds
11:50 AM28.4 °F14.0 °F55 %30.30 in6.2 miEast (100°)4.6 mphScattered Clouds
12:50 PM26.6 °F14.0 °F59 %30.30 in6.2 miESE (120°)6.9 mphScattered Clouds
1:50 PM26.6 °F14.0 °F59 %30.27 in6.2 miESE (120°)9.2 mphScattered Clouds
2:20 PM26.6 °F12.2 °F55 %30.24 in6.2 miESE (110°)10.4 mphScattered Clouds
2:50 PM26.6 °F12.2 °F55 %30.27 in6.2 miENE (70°)6.9 mphScattered Clouds
3:20 PM26.6 °F12.2 °F55 %30.27 in6.2 miENE (70°)15.0 mphMostly Cloudy
3:50 PM26.6 °F12.2 °F55 %30.24 in6.2 miEast (80°)13.8 mphMostly Cloudy
4:20 PM26.6 °F12.2 °F55 %30.24 inNorthMostly Cloudy
4:50 PM24.8 °F14.0 °F64 %30.24 in6.2 miEast (90°)15.0 mph27.6 mphMostly Cloudy
5:20 PM24.8 °F14.0 °F64 %30.21 in6.2 miEast (90°)16.1 mphMostly Cloudy
5:50 PM26.6 °F14.0 °F59 %30.21 in6.2 miESE (110°)8.1 mphMostly Cloudy
6:20 PM26.6 °F14.0 °F59 %30.21 in6.2 miEast (90°)9.2 mphMostly Cloudy
6:50 PM26.6 °F15.8 °F64 %30.21 in6.2 miSE (130°)10.4 mphMostly Cloudy
7:20 PM28.4 °F15.8 °F59 %30.21 in6.2 miSSE (150°)8.1 mphSnowLight Snow
7:50 PM28.4 °F15.8 °F59 %30.21 in6.2 miSSE (150°)6.9 mphSnowLight Snow
8:20 PM26.6 °F17.6 °F69 %30.21 in6.2 miWest (270°)3.5 mphSnowLight Snow
8:50 PM24.8 °F19.4 °F80 %30.21 in5.6 miNW (310°)5.8 mphSnowLight Snow
9:20 PM24.8 °F21.2 °F86 %30.21 in1.9 miNNW (330°)3.5 mphSnowLight Snow
9:50 PM24.8 °F21.2 °F86 %30.21 in5.0 miNW (320°)4.6 mphSnowLight Snow
10:20 PM24.8 °F21.2 °F86 %30.24 in6.2 miWNW (300°)3.5 mphSnowLight Snow
10:50 PM24.8 °F21.2 °F86 %30.24 in6.2 miNNW (340°)4.6 mphSnowLight Snow
Hourly data recorded from ENRA, located miles away from Rossvoll, Norway







STORIES FROM OUR PARTNERS